timestamp,surface_pressure_avg,surface_temp_avg,battery_voltage,lat,long
2023-06-13 00:09:00+00:00,221.0798,3.43,13.21,47.84626,-54.09684
2023-06-13 00:19:00+00:00,221.4897,3.5,12.89,47.84626,-54.09684
2023-06-13 00:29:00+00:00,219.3131,3.5,12.89,47.84626,-54.09684
2023-06-13 00:39:00+00:00,216.0298,3.5,12.89,47.84626,-54.09684
2023-06-13 00:49:00+00:00,214.2548,3.5,12.89,47.84626,-54.09684
2023-06-13 00:59:00+00:00,213.9898,3.53,12.89,47.84626,-54.09684
2023-06-13 01:09:00+00:00,213.8164,3.6,12.89,47.84626,-54.09684
2023-06-13 01:19:00+00:00,215.1614,3.69,12.81,47.84626,-54.09684
2023-06-13 01:29:00+00:00,216.1848,3.78,12.81,47.84626,-54.09684
2023-06-13 01:39:00+00:00,217.3131,3.9,12.81,47.84626,-54.09684
2023-06-13 01:49:00+00:00,216.678,3.9,12.81,47.84626,-54.09684
2023-06-13 01:59:00+00:00,213.7831,3.9,12.81,47.84626,-54.09684
2023-06-13 02:09:00+00:00,213.2997,3.9,12.81,47.84626,-54.09684
2023-06-13 02:19:01+00:00,215.6915,3.99,12.73,47.84626,-54.09684
2023-06-13 02:29:01+00:00,217.1031,4.0,12.73,47.84626,-54.09684
2023-06-13 02:39:01+00:00,217.2164,4.0,12.73,47.84626,-54.09684
2023-06-13 02:49:01+00:00,220.1748,4.0,12.73,47.84626,-54.09684
2023-06-13 02:59:01+00:00,223.7947,4.0,12.73,47.84626,-54.09684
2023-06-13 03:09:01+00:00,227.3514,4.0,12.73,47.84626,-54.09684
2023-06-13 03:19:00+00:00,231.0114,4.07,12.73,47.84626,-54.09684
2023-06-13 03:29:00+00:00,234.3131,4.1,12.73,47.84626,-54.09684
2023-06-13 03:39:00+00:00,238.0164,4.1,12.73,47.84626,-54.09684
2023-06-13 03:49:00+00:00,240.8398,4.1,12.73,47.84626,-54.09684
2023-06-13 03:59:00+00:00,245.3381,4.14,12.73,47.84626,-54.09684
2023-06-13 04:09:00+00:00,251.3331,4.1,12.73,47.84626,-54.09684
2023-06-13 04:19:00+00:00,254.8114,3.9,12.65,47.84626,-54.09684
2023-06-13 04:29:00+00:00,259.2148,3.8,12.65,47.84626,-54.09684
2023-06-13 04:39:00+00:00,266.1914,3.8,12.65,47.84626,-54.09684
2023-06-13 04:49:00+00:00,273.0931,4.1,12.65,47.84626,-54.09684
2023-06-13 04:59:00+00:00,276.9698,4.0,12.65,47.84626,-54.09684
2023-06-13 05:09:00+00:00,281.0464,3.7,12.65,47.84626,-54.09684
2023-06-13 05:19:00+00:00,286.9197,3.6,12.65,47.84626,-54.09684
2023-06-13 05:29:00+00:00,292.9647,3.61,12.65,47.84626,-54.09684
2023-06-13 05:39:00+00:00,296.938,3.69,12.65,47.84626,-54.09684
2023-06-13 05:49:00+00:00,300.9713,3.8,12.65,47.84626,-54.09684
2023-06-13 05:59:00+00:00,307.0798,3.9,12.65,47.84626,-54.09684
2023-06-13 06:09:00+00:00,310.3814,3.89,12.65,47.84626,-54.09684
2023-06-13 06:19:01+00:00,311.903,3.89,12.65,47.84626,-54.09684
2023-06-13 06:29:01+00:00,316.4979,3.9,12.65,47.84626,-54.09684
2023-06-13 06:39:01+00:00,321.8997,3.9,12.65,47.84626,-54.09684
2023-06-13 06:49:01+00:00,323.8613,3.8,12.65,47.84626,-54.09684
2023-06-13 06:59:01+00:00,326.5613,3.8,12.65,47.84626,-54.09684
2023-06-13 07:09:01+00:00,329.233,3.72,12.65,47.84626,-54.09684
2023-06-13 07:19:00+00:00,332.5413,3.76,12.57,47.84626,-54.09684
2023-06-13 07:29:00+00:00,335.8214,3.8,12.57,47.84626,-54.09684
2023-06-13 07:39:00+00:00,339.548,3.87,12.57,47.84626,-54.09684
2023-06-13 07:49:00+00:00,338.80300000000005,3.8,12.57,47.84626,-54.09684
2023-06-13 07:59:00+00:00,339.8613,3.8,12.57,47.84626,-54.09684
2023-06-13 08:09:00+00:00,342.9846,3.8,12.57,47.84626,-54.09684
2023-06-13 08:19:00+00:00,341.0313,3.8,12.57,47.84626,-54.09684
2023-06-13 08:29:00+00:00,337.9213,3.8,12.57,47.84626,-54.09684
2023-06-13 08:39:00+00:00,335.8863,3.8,12.57,47.84626,-54.09684
2023-06-13 08:49:00+00:00,334.2813,3.78,12.57,47.84626,-54.09684
2023-06-13 08:59:00+00:00,327.1697,3.7,12.57,47.84626,-54.09684
2023-06-13 09:09:00+00:00,323.33299999999997,3.7,12.57,47.84626,-54.09684
2023-06-13 09:19:00+00:00,321.5413,3.7,12.65,47.84626,-54.09684
2023-06-13 09:29:00+00:00,314.693,3.6,12.65,47.84626,-54.09684
2023-06-13 09:39:00+00:00,306.9763,3.31,12.65,47.84626,-54.09684
2023-06-13 09:49:00+00:00,304.5797,3.35,12.65,47.84626,-54.09684
2023-06-13 09:59:00+00:00,299.9363,3.38,12.65,47.84626,-54.09684
2023-06-13 10:09:00+00:00,287.588,3.42,12.65,47.84626,-54.09684
2023-06-13 10:19:00+00:00,279.0597,3.4,12.97,47.84626,-54.09684
2023-06-13 10:29:00+00:00,278.5914,3.45,12.97,47.84626,-54.09684
2023-06-13 10:39:00+00:00,272.7397,3.52,12.97,47.84626,-54.09684
2023-06-13 10:49:00+00:00,262.6497,3.6,12.97,47.84626,-54.09684
2023-06-13 10:59:00+00:00,257.9764,3.6,12.97,47.84626,-54.09684
2023-06-13 11:09:00+00:00,253.6215,3.6,12.97,47.84626,-54.09684
2023-06-13 11:19:00+00:00,245.6714,3.62,13.21,47.84626,-54.09684
2023-06-13 11:29:00+00:00,239.0931,3.7,13.21,47.84626,-54.09684
2023-06-13 11:39:00+00:00,237.6931,3.7,13.21,47.84626,-54.09684
2023-06-13 11:49:00+00:00,234.1198,3.7,13.21,47.84626,-54.09684
2023-06-13 11:59:00+00:00,226.8381,3.76,13.21,47.84626,-54.09684
2023-06-13 12:09:00+00:00,221.4948,3.88,13.21,47.84626,-54.09684
2023-06-13 12:19:00+00:00,221.2747,3.88,13.29,47.84626,-54.09684
2023-06-13 12:29:00+00:00,218.7781,3.9,13.29,47.84626,-54.09684
2023-06-13 12:39:00+00:00,212.4881,3.93,13.29,47.84626,-54.09684
2023-06-13 12:49:00+00:00,210.3865,3.9,13.29,47.84626,-54.09684
2023-06-13 12:59:00+00:00,211.3781,3.8,13.29,47.84626,-54.09684
2023-06-13 13:09:00+00:00,211.4131,3.8,13.29,47.84626,-54.09684
2023-06-13 13:19:01+00:00,211.4114,3.97,13.44,47.84626,-54.09684
2023-06-13 13:29:01+00:00,213.2615,3.98,13.44,47.84626,-54.09684
2023-06-13 13:39:01+00:00,213.9648,3.9,13.44,47.84626,-54.09684
2023-06-13 13:49:01+00:00,216.3598,3.55,13.44,47.84626,-54.09684
2023-06-13 13:59:01+00:00,219.9465,3.4,13.44,47.84626,-54.09684
2023-06-13 14:09:01+00:00,218.3264,3.4,13.44,47.84626,-54.09684
2023-06-13 14:19:00+00:00,215.4064,3.4,13.6,47.84626,-54.09684
2023-06-13 14:29:00+00:00,217.6031,3.4,13.6,47.84626,-54.09684
2023-06-13 14:39:00+00:00,221.2364,3.44,13.6,47.84626,-54.09684
2023-06-13 14:49:00+00:00,223.4365,3.46,13.6,47.84626,-54.09684
2023-06-13 14:59:00+00:00,222.9114,3.44,13.6,47.84626,-54.09684
2023-06-13 15:09:00+00:00,223.7131,3.45,13.6,47.84626,-54.09684
2023-06-13 15:19:00+00:00,225.4848,3.48,13.68,47.84626,-54.09684
2023-06-13 15:29:00+00:00,229.1365,3.5,13.68,47.84626,-54.09684
2023-06-13 15:39:00+00:00,230.1848,3.54,13.68,47.84626,-54.09684
2023-06-13 15:49:00+00:00,230.3615,3.62,13.68,47.84626,-54.09684
2023-06-13 15:59:00+00:00,232.2815,3.7,13.68,47.84626,-54.09684
2023-06-13 16:09:00+00:00,238.5131,3.7,13.68,47.84626,-54.09684
2023-06-13 16:19:00+00:00,244.2115,3.7,13.84,47.84626,-54.09684
2023-06-13 16:29:00+00:00,247.1031,3.7,13.84,47.84626,-54.09684
2023-06-13 16:39:00+00:00,252.6848,3.7,13.84,47.84626,-54.09684
2023-06-13 16:49:00+00:00,259.8114,3.6,13.84,47.84626,-54.09684
2023-06-13 16:59:00+00:00,265.4014,3.67,13.84,47.84626,-54.09684
2023-06-13 17:09:00+00:00,268.8431,4.13,13.84,47.84626,-54.09684
2023-06-13 17:19:00+00:00,274.6647,4.29,13.92,47.84626,-54.09684
2023-06-13 17:29:00+00:00,282.5364,3.72,13.92,47.84626,-54.09684
2023-06-13 17:39:00+00:00,290.4247,3.66,13.92,47.84626,-54.09684
2023-06-13 17:49:00+00:00,295.9297,4.13,13.92,47.84626,-54.09684
2023-06-13 17:59:00+00:00,303.2531,4.28,13.92,47.84626,-54.09684
2023-06-13 18:09:00+00:00,311.0747,4.23,13.92,47.84626,-54.09684
2023-06-13 18:19:00+00:00,316.0314,4.2,13.92,47.84626,-54.09684
2023-06-13 18:29:00+00:00,316.7079,4.2,13.92,47.84626,-54.09684
2023-06-13 18:39:00+00:00,321.0413,4.12,13.92,47.84626,-54.09684
2023-06-13 18:49:00+00:00,327.8946,4.27,13.92,47.84626,-54.09684
2023-06-13 18:59:00+00:00,330.1181,4.38,13.92,47.84626,-54.09684
2023-06-13 19:09:00+00:00,326.0363,4.5,13.92,47.84626,-54.09684
2023-06-13 19:19:00+00:00,329.2813,4.4,13.76,47.84626,-54.09684
2023-06-13 19:29:00+00:00,335.843,4.4,13.76,47.84626,-54.09684
2023-06-13 19:39:00+00:00,337.4146,4.5,13.76,47.84626,-54.09684
2023-06-13 19:49:00+00:00,338.0713,4.5,13.76,47.84626,-54.09684
2023-06-13 19:59:00+00:00,343.3729,4.45,13.76,47.84626,-54.09684
2023-06-13 20:09:00+00:00,346.1463,4.4,13.76,47.84626,-54.09684
2023-06-13 20:19:00+00:00,344.1646,4.4,13.68,47.84626,-54.09684
2023-06-13 20:29:00+00:00,346.3246,4.3,13.68,47.84626,-54.09684
2023-06-13 20:39:00+00:00,348.0179,4.2,13.68,47.84626,-54.09684
2023-06-13 20:49:00+00:00,344.9646,4.1,13.68,47.84626,-54.09684
2023-06-13 20:59:00+00:00,344.4013,4.0,13.68,47.84626,-54.09684
2023-06-13 21:09:00+00:00,343.8896,4.0,13.68,47.84626,-54.09684
2023-06-13 21:19:00+00:00,337.8996,4.1,13.53,47.84626,-54.09684
2023-06-13 21:29:00+00:00,329.7112,4.0,13.53,47.84626,-54.09684
2023-06-13 21:39:00+00:00,326.008,3.29,13.53,47.84626,-54.09684
2023-06-13 21:49:00+00:00,325.3664,3.13,13.53,47.84626,-54.09684
2023-06-13 21:59:00+00:00,317.4346,3.31,13.53,47.84626,-54.09684
2023-06-13 22:09:00+00:00,309.428,3.69,13.53,47.84626,-54.09684
2023-06-13 22:19:01+00:00,305.4163,4.0,13.37,47.84626,-54.09684
2023-06-13 22:29:01+00:00,302.4847,4.19,13.37,47.84626,-54.09684
2023-06-13 22:39:01+00:00,298.7648,3.8,13.37,47.84626,-54.09684
2023-06-13 22:49:01+00:00,291.7415,3.7,13.37,47.84626,-54.09684
2023-06-13 22:59:01+00:00,285.8614,3.7,13.37,47.84626,-54.09684
2023-06-13 23:09:01+00:00,279.6548,3.69,13.37,47.84626,-54.09684
2023-06-13 23:19:01+00:00,272.968,3.68,13.13,47.84626,-54.09684
2023-06-13 23:29:01+00:00,263.8231,3.68,13.13,47.84626,-54.09684
2023-06-13 23:39:01+00:00,258.6864,3.69,13.13,47.84626,-54.09684
2023-06-13 23:49:01+00:00,256.5564,3.69,13.13,47.84626,-54.09684
2023-06-13 23:59:01+00:00,246.3015,3.62,13.13,47.84626,-54.09684
